Terminal Aerodrome Forecast
Issued by NWS Shreveport, LA

Home | Current Version | Previous Version | Text Only | Print | Product List | Glossary On
Versions: 1 2 3 4 5 6 7 8 9 10 11 12 13 14 15 16
000
FTUS44 KSHV 062330
TAFELD
TAF
KELD 062330Z 0700/0724 17008KT P6SM SCT050
      TEMPO 0710/0714 5SM BR BKN005
     FM071400 20008KT P6SM BKN015
     FM071600 20010G18KT P6SM SCT030 SCT250=

USA.gov is the U.S. government's official web portal to all federal, state and local government web resources and services.